Location: Boursonne
(49.2024°N, 3.0468°E)
Time: 02:50:38
(UTC+00:00)

Cosmos 2369 Rocket - Pass Details

Date: 03 March 2021
Orbit: 829 x 852 km, 71.0° (Epoch: 17 April)

Event Time Altitude Azimuth Distance (km) Brightness Sun altitude
Rises 19:43:47 0° 333° (NNW) 3,383 6.0 -21.8°
Reaches altitude 10° 19:48:17 10° 7° (N) 2,447 4.7 -22.5°
Maximum altitude 19:50:03 11° 25° (NNE) 2,348 4.4 -22.7°
Enters shadow 19:51:04 11° 36° (NE) 2,381 4.4 -22.9°
